Terminal Aerodrome Forecast
Issued by NWS Spokane, WA

Home | Current Version | Previous Version | Text Only | Print | Product List | Glossary On
Versions: 1 2 3 4 5 6 7 8 9 10 11 12 13 14 15 16 17 18 19 20 21 22 23 24 25 26 27 28 29 30 31 32 33 34 35 36 37 38 39 40 41 42 43 44 45 46 47 48 49
000
FTUS46 KOTX 011723
TAFGEG
TAF
KGEG 011723Z 0118/0218 08004KT 2SM -SN SCT010 OVC030
     FM011900 07004KT 1 1/2SM -SN OVC006
     FM012200 17005KT 3/4SM -SN BR OVC004
     FM020100 19005KT 2SM -SHSN BR SCT003 OVC008
     FM020300 20005KT 5SM BR OVC006=

USA.gov is the U.S. government's official web portal to all federal, state and local government web resources and services.